Vertical_Velocity
-1 -1 -1 -1 -0 1 -0 -0 -0 -0 1 -1 -2 1 -1 0 2 1 2 -3 1 -0 0 -0 -1 -1 -2 -4 -1 1 -0 2 3 1 2 8 0 -3 2 -7 2 -3 9 5 -3
-1 -1 -1 -1 -1 -1 -0 -0 1 -0 -0 1 -0 -1 0 -0 -0 1 -3 -0 1 2 -1 4 0 -1 -2 -5 -1 -1 -1 -0 4 1 2 -3 2 11 -1 -2 -2 -6 1 3 -3
-1 -0 -1 -1 -1 -1 -1 -1 -0 1 -1 -0 -1 1 -1 -2 -0 -0 1 -1 1 1 -1 1 0 6 0 -3 -1 11 6 -3 2 2 4 2 -1 6 -1 -12 -1 -6 -3 -3 -1
-2 -0 -2 -2 -1 -1 -2 -2 -0 -0 -1 -0 -0 0 1 1 0 2 1 2 2 -1 -1 -2 -3 -2 -3 -1 2 -1 -2 3 -2 4 8 9 -2 0 3 -11 3 1 4 6 -3
-1 -1 -2 -1 0 -1 -2 -2 -1 0 -1 0 -0 -0 1 2 2 0 1 1 1 0 0 1 -1 -1 -4 4 2 -3 -2 5 6 2 9 10 -5 -4 3 -3 2 -0 -0 2 1
-1 0 -1 -1 -1 1 0 -2 -2 0 -1 -1 1 -0 1 2 3 2 -0 0 1 2 -0 -2 1 11 3 3 -1 2 -1 2 -3 -1 8 4 -2 1 -4 -7 -5 2 -2 -2 -2
-2 -1 -0 -2 -2 1 0 1 -1 -2 0 -2 0 0 2 -2 0 4 0 1 1 3 4 4 3 1 0 5 1 -3 -5 -2 -2 -3 2 6 0 -6 1 5 -2 1 -0 -2 1
-1 -1 -1 0 -1 -0 -0 -1 2 2 -3 0 -2 2 2 -1 1 4 1 3 3 2 1 8 3 2 2 4 1 -4 -3 -1 0 -3 5 4 -3 -4 8 1 -7 -4 -3 -4 -2
-2 -1 -1 -1 1 2 -0 -1 -1 4 2 -0 1 -0 1 -2 2 1 2 2 1 4 1 2 2 1 1 2 -0 -2 -3 3 -1 11 15 -3 0 -1 -5 4 -4 -1 0 -3 2
-2 -1 -0 -3 -2 3 1 0 -0 0 3 1 1 -2 -1 4 4 2 3 5 4 3 1 -2 0 -0 1 -1 -4 -2 -1 1 3 -3 2 -1 0 4 1 3 1 -7 -6 -6 -3
-2 -3 -2 -3 -2 2 -1 4 -0 -2 -1 6 -4 4 -1 2 4 -1 3 1 2 8 -1 3 -3 -9 -1 1 -1 -0 -2 -0 6 8 2 -1 3 4 2 -3 -2 -0 1 -4 -2
-2 -3 -1 -2 -2 2 2 1 -6 -3 2 -0 5 2 -2 -3 -2 4 3 2 -1 4 3 5 -9 3 3 -2 0 2 0 -1 1 3 -1 1 5 8 5 15 3 -1 7 7 -2
-3 -3 -0 -2 -1 2 -0 -1 -1 -3 -3 -1 5 1 4 -0 1 1 2 2 -0 5 3 -0 -5 5 -1 1 0 -2 1 -0 -1 -5 -1 3 5 -1 -1 -4 -0 1 5 5 4
-3 -3 -2 1 3 1 0 -1 -3 1 1 -1 1 8 0 2 -1 5 10 2 0 -3 -0 -3 10 2 2 -3 3 -5 1 1 -1 2 -1 4 -3 -12 -2 -3 2 -3 -1 1 -4
-3 -4 -2 -0 -2 -3 -2 2 -0 2 -2 2 1 4 4 -2 -2 3 1 5 -2 -1 1 -2 4 -2 -2 -5 4 -17 13 4 2 4 -0 -2 -0 5 -10 -10 -4 4 -4 -6 -9
-3 -3 -1 1 2 2 1 3 1 2 -0 1 2 3 1 4 4 1 1 4 -2 8 1 -3 4 0 -8 3 -5 6 3 5 4 6 -1 -2 0 -7 -14 -5 3 2 -5 -3 -10
-4 -2 -0 2 0 0 -0 4 2 1 11 13 3 -2 10 -1 3 6 5 5 3 3 -0 -1 2 3 -2 2 1 2 6 1 1 1 -6 1 1 4 -2 0 1 12 5 -3 -1
-4 -3 -1 1 1 -1 4 6 -8 4 3 4 3 10 7 3 6 5 3 2 4 2 5 -1 6 10 -2 -2 -1 0 3 -5 -4 -2 -2 6 -3 7 4 5 -6 1 9 19 2
-3 -3 -2 3 4 4 3 -17 6 4 9 5 7 6 4 5 0 8 9 -0 2 -1 -1 1 2 7 -0 5 1 -1 3 5 -2 1 -2 0 3 13 3 -3 -1 3 -3 -4 8
-1 -2 -3 -1 5 1 9 -14 2 7 3 7 -5 1 0 1 6 3 5 4 2 2 1 -0 -0 5 3 2 5 3 -0 1 2 -4 0 -0 3 5 -4 -2 -5 -4 -1 1 -2
1 -10 -1 -5 -4 0 -5 -4 0 -0 6 -5 -1 -1 1 -4 2 -2 4 7 1 -0 1 -1 -2 3 4 -3 -1 1 -3 -3 0 1 -6 -2 5 11 3 -2 -2 -5 -1 -5 -7
-2 -4 -7 2 -4 -4 2 -6 2 -1 -5 -1 -4 -1 -2 -0 1 -5 -1 2 -0 -0 -4 -1 -1 -0 1 4 3 -2 -4 -2 -1 -1 -1 6 -1 6 5 1 -2 1 -1 -6 5
-2 -1 -1 -0 -6 -3 -4 -2 -3 -7 -2 -0 -2 -1 2 -1 -6 0 1 -2 -7 -5 -2 -4 -1 -1 4 9 7 -3 -3 -1 0 -2 -1 0 3 5 6 11 0 -2 -2 -4 -3
-1 -2 -3 2 1 1 -3 -3 -5 -7 -3 1 0 1 3 -3 0 -2 -0 0 1 -1 -3 -3 -5 -3 -5 -2 -2 -0 2 -4 -3 -3 -4 1 0 -1 1 -3 5 4 0 -4 0
-2 -2 -3 -3 -2 -1 0 -0 -1 -1 -3 -3 -2 -2 0 3 1 -1 -0 -0 -1 -2 -3 -3 -4 -1 1 -0 3 1 0 0 -4 -5 -4 -5 2 -4 -2 0 -3 1 -0 2 -3
-4 -1 -2 -2 -2 0 -0 -3 -1 -0 -1 -4 -2 -3 -2 -1 -1 -1 3 3 0 0 -4 -4 -2 -2 -3 3 1 -3 -1 -0 -2 -4 -2 -8 7 -7 -4 -3 -3 6 3 0 1
-1 -1 -3 -2 -1 -1 -2 -1 -2 -1 -2 -2 -1 -0 -2 -1 -1 -0 -2 1 0 0 0 -5 -3 -5 -5 -7 -1 3 2 -2 -3 -3 -1 -2 6 4 -9 -2 -3 -4 4 3 3
Height
3139 3137 3135 3133 3132 3130 3129 3128 3127 3127 3127 3127 3127 3127 3128 3128 3129 3131 3132 3133 3134 3136 3138 3141 3144 3147 3150 3152 3154 3155 3156 3156 3155 3154 3154 3154 3157 3157 3160 3162 3164 3164 3166 3171 3173
3136 3134 3132 3131 3129 3128 3126 3125 3124 3124 3124 3124 3124 3124 3125 3126 3127 3129 3130 3131 3132 3134 3137 3141 3143 3146 3149 3151 3154 3154 3156 3156 3157 3156 3154 3155 3157 3159 3161 3163 3165 3165 3169 3172 3176
3132 3130 3129 3128 3126 3124 3123 3122 3121 3121 3120 3121 3121 3120 3122 3124 3125 3126 3127 3129 3131 3133 3135 3138 3141 3145 3148 3150 3152 3156 3156 3156 3157 3157 3158 3157 3159 3161 3162 3163 3166 3166 3171 3175 3178
3128 3126 3125 3123 3122 3121 3120 3119 3118 3118 3117 3117 3118 3118 3118 3121 3125 3123 3124 3127 3129 3131 3134 3135 3138 3142 3146 3149 3152 3154 3155 3156 3157 3158 3158 3159 3160 3162 3164 3165 3167 3167 3171 3176 3180
3123 3121 3119 3118 3117 3116 3116 3115 3114 3115 3114 3114 3114 3116 3117 3118 3120 3121 3122 3124 3127 3130 3133 3135 3138 3142 3146 3150 3151 3153 3154 3155 3156 3157 3159 3160 3157 3159 3163 3166 3164 3168 3169 3175 3180
3117 3115 3113 3112 3111 3111 3110 3110 3110 3111 3111 3110 3111 3112 3114 3116 3117 3119 3121 3123 3125 3129 3131 3134 3139 3145 3147 3149 3151 3154 3153 3153 3153 3154 3157 3159 3159 3160 3162 3162 3165 3167 3169 3174 3178
3112 3109 3107 3106 3106 3106 3105 3104 3105 3106 3107 3108 3108 3109 3111 3113 3114 3117 3119 3121 3124 3128 3131 3135 3138 3141 3145 3149 3151 3151 3151 3151 3152 3153 3156 3157 3159 3160 3160 3159 3157 3165 3168 3173 3179
3106 3105 3102 3100 3100 3101 3100 3099 3099 3100 3102 3104 3105 3107 3108 3109 3111 3114 3117 3120 3123 3126 3130 3134 3137 3141 3143 3146 3149 3150 3151 3151 3151 3153 3156 3159 3158 3159 3156 3156 3160 3167 3169 3172 3179
3102 3100 3098 3095 3095 3095 3095 3095 3095 3095 3096 3100 3103 3105 3106 3107 3110 3112 3115 3118 3121 3124 3127 3132 3136 3139 3142 3145 3148 3149 3150 3152 3151 3155 3156 3159 3158 3158 3159 3158 3162 3165 3169 3172 3177
3099 3097 3094 3091 3091 3091 3090 3091 3091 3092 3092 3096 3100 3104 3105 3107 3109 3109 3112 3115 3119 3122 3126 3130 3134 3137 3140 3142 3145 3148 3150 3151 3153 3156 3158 3158 3158 3159 3159 3161 3162 3165 3168 3171 3174
3096 3094 3091 3089 3087 3089 3089 3089 3092 3092 3090 3092 3095 3098 3101 3104 3107 3107 3110 3113 3115 3121 3123 3128 3132 3133 3138 3141 3144 3146 3148 3149 3153 3155 3155 3154 3154 3158 3159 3160 3160 3163 3166 3169 3172
3093 3090 3088 3086 3085 3086 3086 3085 3084 3085 3087 3089 3092 3096 3099 3101 3104 3106 3108 3112 3114 3119 3123 3128 3129 3135 3139 3141 3142 3144 3146 3149 3151 3152 3152 3150 3149 3156 3159 3160 3160 3161 3164 3167 3170
3091 3088 3085 3083 3083 3083 3082 3083 3082 3084 3086 3088 3091 3095 3098 3102 3104 3105 3108 3111 3114 3118 3122 3126 3130 3135 3137 3139 3141 3141 3144 3148 3151 3149 3148 3147 3150 3153 3157 3158 3159 3159 3162 3166 3169
3089 3086 3083 3081 3082 3080 3080 3081 3082 3084 3085 3087 3089 3094 3097 3100 3103 3106 3108 3112 3115 3118 3122 3126 3130 3132 3134 3136 3139 3139 3143 3146 3148 3150 3149 3149 3151 3151 3153 3155 3155 3157 3159 3163 3167
3088 3085 3082 3080 3079 3079 3081 3082 3084 3085 3085 3087 3089 3093 3096 3100 3102 3105 3108 3111 3114 3117 3121 3124 3127 3129 3131 3133 3137 3137 3142 3144 3146 3148 3148 3147 3149 3150 3152 3151 3150 3154 3157 3160 3163
3088 3085 3082 3080 3080 3081 3082 3082 3085 3088 3084 3087 3089 3092 3095 3099 3102 3105 3107 3111 3114 3116 3119 3122 3125 3128 3130 3132 3134 3136 3138 3140 3142 3145 3147 3146 3149 3149 3147 3145 3148 3151 3155 3156 3159
3087 3085 3083 3082 3082 3081 3081 3083 3087 3086 3086 3089 3089 3092 3095 3098 3102 3104 3105 3109 3112 3115 3118 3121 3124 3126 3127 3129 3132 3133 3135 3137 3141 3143 3146 3146 3148 3149 3149 3145 3146 3147 3150 3153 3156
3089 3086 3084 3084 3083 3083 3084 3086 3086 3088 3086 3086 3088 3093 3097 3099 3102 3104 3106 3107 3110 3112 3115 3118 3123 3123 3124 3126 3129 3130 3132 3134 3140 3143 3142 3144 3145 3148 3145 3144 3142 3143 3148 3152 3153
3092 3089 3087 3087 3087 3086 3087 3085 3090 3088 3088 3089 3090 3093 3095 3098 3101 3103 3105 3107 3109 3111 3115 3116 3120 3121 3122 3124 3127 3128 3129 3132 3133 3137 3140 3142 3143 3145 3143 3141 3139 3139 3142 3146 3149
3094 3091 3090 3089 3089 3089 3089 3089 3091 3091 3091 3090 3091 3094 3095 3098 3100 3102 3105 3109 3109 3111 3113 3116 3119 3121 3122 3123 3124 3124 3127 3130 3131 3138 3142 3141 3142 3143 3139 3137 3137 3137 3138 3140 3144
3098 3095 3094 3093 3092 3091 3090 3092 3093 3092 3093 3093 3094 3096 3096 3098 3100 3101 3107 3110 3110 3111 3112 3114 3117 3121 3122 3124 3123 3124 3124 3128 3131 3133 3136 3143 3143 3143 3140 3139 3138 3137 3137 3138 3141
3100 3098 3097 3096 3096 3093 3093 3094 3095 3095 3094 3095 3097 3099 3099 3099 3101 3102 3106 3108 3109 3110 3112 3114 3115 3118 3122 3123 3124 3124 3126 3128 3128 3134 3134 3135 3144 3141 3140 3138 3138 3137 3135 3136 3139
3102 3100 3098 3097 3096 3095 3096 3096 3096 3095 3095 3097 3098 3099 3100 3101 3103 3103 3105 3107 3107 3110 3112 3114 3116 3119 3123 3127 3125 3125 3128 3130 3130 3132 3134 3136 3139 3138 3137 3136 3135 3134 3133 3133 3134
3103 3100 3098 3098 3097 3098 3098 3098 3097 3097 3097 3097 3097 3099 3100 3101 3102 3103 3104 3106 3107 3109 3111 3114 3116 3119 3123 3125 3126 3127 3128 3130 3132 3133 3134 3133 3134 3134 3133 3131 3131 3131 3131 3131 3131
3103 3101 3098 3098 3098 3098 3099 3098 3098 3098 3098 3098 3098 3099 3100 3102 3103 3104 3105 3106 3107 3107 3109 3114 3116 3118 3119 3121 3123 3125 3127 3128 3131 3133 3133 3131 3131 3132 3131 3130 3130 3129 3130 3129 3129
3105 3102 3101 3100 3099 3098 3098 3098 3098 3098 3099 3099 3099 3099 3099 3101 3103 3103 3104 3106 3106 3107 3107 3111 3114 3115 3117 3118 3119 3120 3123 3125 3127 3129 3130 3130 3130 3129 3130 3129 3129 3129 3129 3128 3127
3106 3104 3103 3102 3100 3101 3100 3099 3099 3099 3099 3099 3098 3098 3099 3100 3100 3101 3102 3104 3105 3106 3107 3110 3112 3114 3114 3114 3114 3118 3118 3120 3123 3125 3125 3125 3128 3125 3128 3127 3126 3126 3126 3126 3126